User: anonymous
Location: Oshawa
(43.9000°N, 78.8670°W)
Time: 18:19:17
(UTC-04:00)
Language:

Cosmos 2333 Rocket - Orbit

View from above orbital plane
View from above orbital plane
View from above satellite
View from above satellite

Ground track
Ground track

The orbit data is extracted from the following two-line orbital elements,

1 24298U 96051B   14273.45691527 -.00000122  00000-0 -39483-4 0  5660
2 24298 070.8640 350.2722 0017585 222.4000 214.5448 14.12460280931930
Epoch (UTC): 30 September 2014 10:57:57
Eccentricity: 0.0017585
inclination: 70.8640°
perigee height: 838 km
apogee height: 863 km
right ascension of ascending node: 350.2722°
argument of perigee: 222.4000°
revolutions per day: 14.12460280
mean anomaly at epoch: 214.5448°
orbit number at epoch: 93193

The dashed part of the orbit path shows where the satellite is in the earth's shadow,  

DLR